Home > Weather > Suai > Past weeks

Flag for Timor-Leste Weather for the Past 2 Weeks in Suai, Timor-Leste

Now
86 °F

Broken clouds.


Feels Like: 99 °F
Forecast: 81 / 88 °F
Wind: 8 mph from Northwest

Location: Darwin Airport

Current Time: Feb 13, 2016 at 12:17:59 PM

Latest Report: Feb 13, 2016 at 11:00 AM


Visibility: N/A

Pressure: 29.80 "Hg

Humidity: 79%

Dew point: 79 °F

Location of SuaiLocation

Historic Weather in Suai — Graph

°F

Suai Temperature Yesterday

Maximum temperature yesterday: 91 °F (at 12:00 PM)
Minimum temperature yesterday: 77 °F (at 1:00 AM)
Average temperature yesterday: 85 °F

High & Low Weather Summary for the Past Weeks

 TemperatureHumidityPressure
High93 °F (Feb 9, 1:30 PM)100% (Jan 31, 3:30 AM)29.83 "Hg (Jan 31, 3:30 AM)
Low75 °F (Jan 31, 8:00 AM)52% (Feb 6, 5:00 PM)29.62 "Hg (Feb 11, 4:00 PM)
Average83 °F81%29.74 "Hg
* Reported Jan 29 11:00 AM — Feb 13 11:00 AM, Suai, Weather by CustomWeather, © 2016

Note: Actual official high and low records may vary slightly from our data, if they occured in-between our weather recording intervals... More about our weather records

Advertising

Suai Weather History for the Previous 24 Hours

 ConditionsComfort  
Time TempWeatherWind HumidityBarometerVisibility
11:00 AM
Sat, Feb 13
86 °FBroken clouds.8 mph79%29.80 "HgN/A
10:00 AM86 °FPartly sunny.7 mph84%29.83 "HgN/A
9:30 AM84 °FPartly sunny.6 mph84%29.83 "HgN/A
9:00 AM82 °FBroken clouds.6 mph89%29.83 "HgN/A
8:30 AM81 °FBroken clouds.1 mph89%29.83 "HgN/A
8:00 AM81 °FScattered showers. Broken clouds.5 mph89%29.83 "HgN/A
7:00 AM77 °FThundershowers. Broken clouds.8 mph94%29.83 "Hg6 mi
6:30 AM77 °FSprinkles. Passing clouds.15 mph94%29.80 "HgN/A
6:00 AM79 °FScattered showers. Passing clouds.14 mph89%29.77 "HgN/A
5:00 AM84 °FScattered showers. Partly cloudy.8 mph84%29.74 "HgN/A
4:00 AM84 °FPassing clouds.8 mph84%29.74 "HgN/A
3:30 AM84 °FMostly cloudy.9 mph84%29.74 "HgN/A
3:00 AM84 °FOvercast.9 mph79%29.71 "HgN/A
2:30 AM84 °FPartly cloudy.8 mph79%29.74 "HgN/A
2:00 AM84 °FPassing clouds.8 mph79%29.74 "HgN/A
1:30 AM84 °FClear.8 mph84%29.74 "Hg10 mi
1:00 AM84 °FPassing clouds.8 mph84%29.77 "HgN/A
12:30 AM84 °FPassing clouds.8 mph84%29.77 "HgN/A
12:00 AM84 °FPassing clouds.8 mph84%29.77 "HgN/A
11:30 PM
Fri, Feb 12
86 °FClear.9 mph75%29.77 "Hg10 mi
11:00 PM86 °FClear.10 mph75%29.80 "Hg10 mi
10:30 PM84 °FClear.10 mph84%29.77 "Hg10 mi
10:00 PM84 °FClear.9 mph84%29.77 "Hg10 mi
9:30 PM86 °FClear.8 mph75%29.77 "Hg10 mi
9:00 PM86 °FClear.9 mph75%29.77 "Hg10 mi
8:30 PM86 °FClear.9 mph79%29.77 "Hg10 mi
8:00 PM86 °FClear.10 mph79%29.74 "Hg10 mi
7:30 PM86 °FPartly cloudy.8 mph75%29.74 "HgN/A
7:00 PM86 °FBroken clouds.8 mph75%29.74 "HgN/A
6:30 PM86 °FBroken clouds.10 mph75%29.71 "HgN/A
6:00 PM86 °FBroken clouds.9 mph79%29.71 "HgN/A
5:30 PM86 °FBroken clouds.10 mph75%29.71 "HgN/A
5:00 PM86 °FBroken clouds.9 mph79%29.71 "HgN/A
4:30 PM86 °FBroken clouds.10 mph79%29.68 "HgN/A
4:00 PM86 °FPartly sunny.14 mph79%29.68 "HgN/A
3:30 PM86 °FScattered showers. Broken clouds.15 mph79%29.68 "HgN/A
3:00 PM88 °FScattered showers. Partly sunny.15 mph75%29.71 "HgN/A
2:30 PM88 °FSprinkles. Broken clouds.16 mph75%29.71 "HgN/A
2:00 PM90 °FBroken clouds.17 mph71%29.71 "HgN/A
1:30 PM90 °FScattered clouds.13 mph71%29.71 "HgN/A
1:00 PM91 °FScattered clouds.9 mph67%29.74 "HgN/A
12:30 PM91 °FScattered clouds.5 mph56%29.74 "HgN/A
12:00 PM91 °FPartly sunny.6 mph56%29.74 "HgN/A
Weather by CustomWeather, © 2016

See weather overviewHow to use our weather pages